Starlink 33622

operational
NORAD ID: 63066 Int'l Des: 2025-035 Owner: SPXS Country: US Constellation: starlink
LEOCIRCULAR

关于 Starlink 33622

正在加载描述...

实时位置

正在加载3D地球...

即将过境

高度历史

Altitude vs Time

uPlot chart will show altitude changes over time

两行轨道根数

1 63066U 25035Q 26034.23638912 .00044628 00000-0 16188-2 0 9995
2 63066 43.0032 341.3835 0002748 244.0382 116.0187 15.27631672 54469
Epoch: Feb 3, 2026 • Age: 12 hours

当前状态

高度 493.9 km
速度 7.62 km/s
星下点 -42.29°S, 166.29°W
发射日期 Feb 21, 2025
运行时间 0.9 years
类型 internet

技术详情

分类 Payload
质量 575.00 kg
干质量 530.00 kg
总质量 575.00 kg
长度 0.30 m
直径 4.10 m
跨度 29.00 m
形状 Box + pan
制造商 SPXS
平台类型 Starlink V2MO
阶段状态 In Orbit
所有者/国家 SPXS/US

大型星座

Loading constellations...